Location: G�ndlingen
(48.0142°N, 7.6396°E)
Time: 08:38:47
(UTC+00:00)

Cosmos 1151 Rocket - Pass Details

Date: 05 July 2020
Orbit: 591 x 617 km, 82.5° (Epoch: 04 August)

Event Time Altitude Azimuth Distance (km) Brightness Sun altitude
Rises 23:32:31 0° 344° (NNW) 2,879 7.9 -19.3°
Reaches altitude 10° 23:34:50 10° 338° (NNW) 1,966 6.6 -19.3°
Maximum altitude 23:38:55 42° 268° (W) 873 3.7 -19.3°
Enters shadow 23:40:02 34° 230° (SW) 996 3.8 -19.3°
